sat.trackr.live / text

‹ back to catalog

STARLINK-36405

NORAD 67921 · 2026-036T

PAYLOAD ACTIVE UNKNOWN

§ Identity

Operator
Country
US
Launch date
2026-02-22
Launch site
AFETR
Launch vehicle
Mass (kg)
RCS (m²)

Purposes: comms

External: N2YO · Heavens-Above · Gunter

§ Orbital elements

Epoch: 2026-05-25T02:13:33.259584Z

Period
94.27 min
Inclination
43.0002°
Eccentricity
0.0001198
Mean motion
15.27592802 rev/d
Perigee alt
482.2 km
Apogee alt
483.8 km
Semi-major
6,861.1 km
B*
7.3222e-4
RAAN
174.0775°
Arg perigee
272.5985°
Mean anomaly
87.4729°
Rev number
1,540

§ Raw data

STARLINK-364051 67921U 26036T   26145.09274606  .00019949  00000+0  73222-3 0  99942 67921  43.0002 174.0775 0001198 272.5985  87.4729 15.27592802 15402

JSON: /api/v1/satellites/67921 · /tle

For live sub-satellite position, see the globe view (requires WebGL).

§ Visibility from observer

Set your observer location to see the next 7 days of passes ≥ 10°. The values pass through the URL so the page stays shareable.

No JS? Fill the form by hand. The geolocation button needs JavaScript.